GW2242 Weather Reports


Display with metric or nautical units.
time (UTC)temp
F
wind
direction
speed
MPH
gust
MPH
rain 1hr
in
rain 24hr
in
rain mn
in
humidity
%
barometer
mb
20260503204009 60 295 6.0 8.0 0.00 0.00 0.00 29 1010.4
20260503203506 58 276 3.0 7.0 0.00 0.00 0.00 31 1010.4
20260503203003 59 15 3.0 6.0 0.00 0.00 0.00 31 1010.7
20260503202501 60 259 4.0 9.0 0.00 0.00 0.00 30 1010.5
20260503201959 59 19 5.0 8.0 0.00 0.00 0.00 30 1010.7
20260503201456 60 231 3.0 5.0 0.00 0.00 0.00 31 1010.7
20260503200953 61 215 2.0 3.0 0.00 0.00 0.00 31 1010.7
20260503200449 60 272 5.0 6.0 0.00 0.00 0.00 30 1010.8
20260503195946 59 247 5.0 8.0 0.00 0.00 0.00 31 1010.7
20260503195444 58 206 3.0 5.0 0.00 0.00 0.00 32 1010.8
20260503194940 59 297 6.0 10.0 0.00 0.00 0.00 31 1011.0
20260503194437 59 55 5.0 7.0 0.00 0.00 0.00 32 1010.9
20260503193932 59 45 6.0 8.0 0.00 0.00 0.00 31 1011.1
20260503193428 60 10 3.0 3.0 0.00 0.00 0.00 33 1010.8
20260503192923 59 215 1.0 1.0 0.00 0.00 0.00 33 1010.8
20260503192420 59 258 2.0 2.0 0.00 0.00 0.00 33 1011.2
20260503191916 59 22 5.0 7.0 0.00 0.00 0.00 31 1011.1
20260503191414 59 51 5.0 7.0 0.00 0.00 0.00 31 1011.2
20260503190910 59 24 6.0 7.0 0.00 0.00 0.00 31 1011.2
20260503190408 60 291 3.0 5.0 0.00 0.00 0.00 32 1011.3
20260503185904 58 305 4.0 6.0 0.00 0.00 0.00 33 1011.1
20260503185401 58 280 3.0 5.0 0.00 0.00 0.00 33 1010.9
20260503184900 59 295 6.0 10.0 0.00 0.00 0.00 32 1011.5
20260503184356 58 269 7.0 9.0 0.00 0.00 0.00 32 1011.5
20260503183853 57 278 3.0 3.0 0.00 0.00 0.00 35 1011.3
20260503183350 57 37 4.0 6.0 0.00 0.00 0.00 33 1011.7
20260503182847 56 352 3.0 3.0 0.00 0.00 0.00 33 1011.7
20260503182346 57 223 5.0 8.0 0.00 0.00 0.00 34 1011.7
20260503181842 58 214 1.0 2.0 0.00 0.00 0.00 37 1011.8
20260503181340 57 215 0.0 0.0 0.00 0.00 0.00 39 1011.7
20260503180836 58 15 7.0 9.0 0.00 0.00 0.00 34 1011.6
20260503180334 57 246 7.0 9.0 0.00 0.00 0.00 34 1011.7
20260503175830 57 215 2.0 2.0 0.00 0.00 0.00 37 1011.7
20260503175328 55 224 3.0 3.0 0.00 0.00 0.00 39 1011.8
20260503174823 54 21 5.0 6.0 0.00 0.00 0.00 39 1012.0
20260503174322 54 231 8.0 9.0 0.00 0.00 0.00 39 1011.8
20260503173817 55 346 4.0 7.0 0.00 0.00 0.00 37 1012.0
20260503173313 56 21 2.0 2.0 0.00 0.00 0.00 43 1012.1
20260503172810 55 150 4.0 5.0 0.00 0.00 0.00 42 1012.3
20260503172308 54 279 5.0 7.0 0.00 0.00 0.00 38 1012.0
20260503171803 53 57 4.0 6.0 0.00 0.00 0.00 39 1012.1
20260503171300 54 28 8.0 9.0 0.00 0.00 0.00 37 1012.3
20260503170758 54 25 6.0 10.0 0.00 0.00 0.00 39 1012.2
20260503170254 53 263 5.0 8.0 0.00 0.00 0.00 41 1012.2
20260503160217 52 311 5.0 7.0 0.00 0.00 0.00 41 1012.5
20260503150647 50 329 4.0 5.0 0.00 0.00 0.00 44 1012.7
20260503150143 50 48 3.0 3.0 0.00 0.00 0.00 46 1012.6
20260503140107 50 231 7.0 13.0 0.00 0.00 0.00 48 1012.8
20260503131037 48 52 5.0 6.0 0.00 0.00 0.00 53 1012.7
20260503130534 48 214 3.0 5.0 0.00 0.00 0.00 54 1012.6
20260503110424 45 240 3.0 5.0 0.00 0.00 0.00 58 1012.2
20260503090310 47 225 2.0 3.0 0.00 0.00 0.00 53 1010.6
20260503081237 47 227 1.0 2.0 0.00 0.00 0.00 51 1010.5
20260503080732 47 21 3.0 5.0 0.00 0.00 0.00 51 1010.5
20260503080230 48 211 1.0 1.0 0.00 0.00 0.00 52 1010.2
20260503072707 48 54 1.0 2.0 0.00 0.00 0.00 48 1010.3
20260503072203 48 18 3.0 5.0 0.00 0.00 0.00 47 1010.5
20260503071700 48 6 2.0 3.0 0.00 0.00 0.00 50 1010.4
20260503071157 48 265 1.0 1.0 0.00 0.00 0.00 49 1010.4
20260503070654 48 147 0.0 1.0 0.00 0.00 0.00 50 1010.3
20260503070152 48 274 1.0 1.0 0.00 0.00 0.00 50 1010.4
20260503060116 50 13 1.0 2.0 0.00 0.00 0.00 47 1010.5
20260503055108 50 234 1.0 1.0 0.00 0.00 0.00 47 1010.9
20260503054603 50 14 2.0 2.0 0.00 0.00 0.00 47 1010.8
20260503054100 50 43 1.0 1.0 0.00 0.00 0.00 47 1010.9
20260503053559 50 41 3.0 3.0 0.00 0.00 0.00 46 1010.6
20260503053056 50 145 1.0 1.0 0.00 0.00 0.00 46 1010.8
20260503052553 50 25 3.0 5.0 0.00 0.00 0.00 46 1010.8
20260503052049 50 236 0.0 1.0 0.00 0.00 0.00 46 1010.8
20260503051544 50 291 1.0 1.0 0.00 0.00 0.00 45 1010.8
20260503051043 51 249 1.0 2.0 0.00 0.00 0.00 45 1010.9
20260503050538 50 4 5.0 6.0 0.00 0.00 0.00 45 1011.0
20260503050036 51 283 1.0 1.0 0.00 0.00 0.00 45 1011.1
20260503045533 51 252 1.0 2.0 0.00 0.00 0.00 46 1010.8
20260503045030 50 266 2.0 2.0 0.00 0.00 0.00 46 1011.0
20260503044526 50 275 1.0 1.0 0.00 0.00 0.00 46 1011.2
20260503044024 50 40 0.0 0.0 0.00 0.00 0.00 46 1011.1
20260503043520 51 254 1.0 1.0 0.00 0.00 0.00 45 1011.1
20260503043017 51 190 0.0 0.0 0.00 0.00 0.00 45 1011.0
20260503042514 51 228 0.0 0.0 0.00 0.00 0.00 45 1011.0
20260503042010 51 229 1.0 1.0 0.00 0.00 0.00 46 1011.2
20260503041507 51 4 1.0 1.0 0.00 0.00 0.00 44 1011.3
20260503041005 51 282 1.0 1.0 0.00 0.00 0.00 44 1011.1
20260503040502 51 40 1.0 1.0 0.00 0.00 0.00 45 1011.3
20260503035959 51 0 2.0 2.0 0.00 0.00 0.00 45 1011.0
20260503035455 51 222 0.0 1.0 0.00 0.00 0.00 45 1011.0
20260503034954 51 92 0.0 1.0 0.00 0.00 0.00 44 1011.3
20260503034450 51 12 2.0 3.0 0.00 0.00 0.00 43 1011.1
20260503033947 51 201 1.0 1.0 0.00 0.00 0.00 45 1011.0
20260503033445 52 215 0.0 1.0 0.00 0.00 0.00 44 1011.2
20260503032943 52 41 0.0 0.0 0.00 0.00 0.00 43 1010.9
20260503032441 52 231 0.0 0.0 0.00 0.00 0.00 44 1010.9
20260503031938 52 210 0.0 0.0 0.00 0.00 0.00 43 1011.1
20260503031436 52 291 2.0 2.0 0.00 0.00 0.00 41 1011.1
20260503030932 52 19 3.0 7.0 0.00 0.00 0.00 43 1010.9
20260503030429 52 229 2.0 2.0 0.00 0.00 0.00 42 1011.0
20260503025926 52 211 2.0 2.0 0.00 0.00 0.00 43 1011.1
20260503025422 52 216 0.0 1.0 0.00 0.00 0.00 42 1010.9
20260503024920 53 206 1.0 1.0 0.00 0.00 0.00 43 1011.0
20260503024417 53 300 2.0 2.0 0.00 0.00 0.00 42 1011.2
20260503023914 53 240 1.0 2.0 0.00 0.00 0.00 42 1011.2
20260503023410 53 220 0.0 1.0 0.00 0.00 0.00 42 1011.0
20260503022907 53 19 4.0 5.0 0.00 0.00 0.00 40 1011.1
20260503022402 54 0 1.0 1.0 0.00 0.00 0.00 40 1011.0
20260503021858 54 225 2.0 2.0 0.00 0.00 0.00 41 1011.1
20260503021355 54 298 2.0 2.0 0.00 0.00 0.00 40 1011.1
20260503020852 54 220 2.0 2.0 0.00 0.00 0.00 41 1010.9
20260503020350 54 14 2.0 2.0 0.00 0.00 0.00 40 1010.9
20260503015846 54 265 1.0 2.0 0.00 0.00 0.00 40 1010.9
20260503015343 54 19 2.0 2.0 0.00 0.00 0.00 39 1011.2
20260503014839 54 277 1.0 2.0 0.00 0.00 0.00 41 1011.1
20260503014337 54 93 2.0 2.0 0.00 0.00 0.00 40 1011.2
20260503013834 55 41 1.0 1.0 0.00 0.00 0.00 39 1011.1
20260503013331 55 260 1.0 1.0 0.00 0.00 0.00 40 1011.2
20260503012828 55 221 0.0 1.0 0.00 0.00 0.00 40 1011.3
20260503012326 55 222 2.0 3.0 0.00 0.00 0.00 40 1010.9
20260503011822 55 356 2.0 2.0 0.00 0.00 0.00 39 1011.1
20260503011319 55 236 0.0 0.0 0.00 0.00 0.00 40 1011.1
20260503010816 55 253 0.0 0.0 0.00 0.00 0.00 39 1010.9
20260503010313 55 240 1.0 1.0 0.00 0.00 0.00 39 1011.1
20260503005810 55 307 1.0 1.0 0.00 0.00 0.00 39 1010.6
20260503005307 55 216 2.0 3.0 0.00 0.00 0.00 39 1010.9
20260503004803 55 221 1.0 1.0 0.00 0.00 0.00 40 1010.5
20260503004301 55 312 2.0 2.0 0.00 0.00 0.00 39 1010.5
20260503003758 56 250 0.0 1.0 0.00 0.00 0.00 40 1010.7
20260503003255 56 13 4.0 6.0 0.00 0.00 0.00 39 1010.6
20260503002752 56 42 2.0 2.0 0.00 0.00 0.00 40 1010.6
20260503002249 56 220 2.0 3.0 0.00 0.00 0.00 39 1010.4
20260503001745 56 227 0.0 1.0 0.00 0.00 0.00 41 1010.4
20260503001241 56 220 0.0 0.0 0.00 0.00 0.00 41 1010.2
20260503000739 56 229 0.0 0.0 0.00 0.00 0.00 42 1010.4
20260503000236 56 305 1.0 1.0 0.00 0.00 0.00 38 1010.4
20260502235733 57 12 2.0 3.0 0.00 0.00 0.00 37 1010.1
20260502235231 57 211 1.0 1.0 0.00 0.00 0.00 38 1010.2
20260502234727 57 226 1.0 1.0 0.00 0.00 0.00 38 1010.2
20260502234225 57 46 1.0 2.0 0.00 0.00 0.00 37 1010.2
20260502233721 57 350 2.0 2.0 0.00 0.00 0.00 37 1010.2
20260502233218 57 227 2.0 2.0 0.00 0.00 0.00 36 1010.1
20260502232713 58 43 0.0 1.0 0.00 0.00 0.00 37 1010.1
20260502232211 58 219 3.0 3.0 0.00 0.00 0.00 36 1010.4
20260502231707 58 306 3.0 3.0 0.00 0.00 0.00 36 1010.4
20260502231205 58 8 2.0 2.0 0.00 0.00 0.00 36 1010.1
20260502230704 58 61 2.0 2.0 0.00 0.00 0.00 36 1010.1
20260502230201 58 220 1.0 1.0 0.00 0.00 0.00 37 1009.9
20260502225656 59 43 2.0 3.0 0.00 0.00 0.00 37 1009.9
20260502225154 59 47 3.0 3.0 0.00 0.00 0.00 35 1010.1
20260502224650 59 40 3.0 5.0 0.00 0.00 0.00 36 1009.9
20260502224147 59 39 4.0 5.0 0.00 0.00 0.00 35 1010.0
20260502223645 59 18 3.0 5.0 0.00 0.00 0.00 35 1009.7
20260502223143 59 69 1.0 1.0 0.00 0.00 0.00 35 1009.9
20260502222640 59 324 2.0 3.0 0.00 0.00 0.00 35 1009.6
20260502222137 59 25 4.0 5.0 0.00 0.00 0.00 35 1009.8
20260502221632 60 220 1.0 1.0 0.00 0.00 0.00 39 1009.8
20260502221130 59 349 3.0 3.0 0.00 0.00 0.00 37 1010.0
20260502220626 59 184 1.0 2.0 0.00 0.00 0.00 36 1009.9
20260502220122 59 67 1.0 2.0 0.00 0.00 0.00 36 1010.2
20260502215620 59 197 1.0 1.0 0.00 0.00 0.00 39 1010.0
20260502215116 59 194 0.0 0.0 0.00 0.00 0.00 38 1009.9
20260502214613 59 261 1.0 2.0 0.00 0.00 0.00 38 1010.0
20260502214110 59 74 1.0 1.0 0.00 0.00 0.00 37 1009.9
20260502213608 59 151 0.0 1.0 0.00 0.00 0.00 38 1009.7
20260502213105 59 46 2.0 3.0 0.00 0.00 0.00 37 1009.7
20260502212604 59 358 3.0 3.0 0.00 0.00 0.00 37 1009.9
20260502212101 60 344 5.0 6.0 0.00 0.00 0.00 39 1009.6
20260502211556 60 219 1.0 1.0 0.00 0.00 0.00 38 1009.6
20260502211054 59 269 7.0 9.0 0.00 0.00 0.00 37 1009.6
20260502210551 60 201 3.0 3.0 0.00 0.00 0.00 38 1009.5
20260502210048 60 50 3.0 3.0 0.00 0.00 0.00 36 1009.5
20260502205544 61 217 3.0 3.0 0.00 0.00 0.00 37 1009.4
20260502205042 62 236 2.0 2.0 0.00 0.00 0.00 39 1009.7
20260502204538 62 242 5.0 6.0 0.00 0.00 0.00 36 1009.5